STARLINK-1048, 44753

Orbit data source: Space-Track

STARLINK-1048, 44753 is a payload satellite owned by SpaceX/Seattle (US) in LEO that was launched on Mon, 11 Nov 2019 UTC via an FALCON 9 launch vehicle from the Air Force Eastern Test Range (AFETR). Payload-class satellites include a variety of spacecraft equipped with specific instruments for various scientific and technological missions. These include communications satellites like Starlink; space stations such as the ISS; scientific satellites like the Hubble; Earth observation satellites from companies like Planet Labs, Umbra, and HawkEye 360; GPS; miniature CubeSats for education and research; and military/defense satellites.

Loading next visibility...
Identifier
44753, 2019-074AS
Orbit
LEO
Country
Flag of USUS
Related business
Manufacturer
SpaceX/Seattle
Mission
Partially operational Commercial Communications
Bus & Motor
STARLINK, Unknown motor
Mass
260 kg wet, ~248 kg dry
Launch date (UTC)
2019-11-11 (7 years ago)
Launch vehicle
FALCON 9
Launch site
Air Force Eastern Test Range (AFETR)
Object type
Payload
Rocket body
Debris
Shape & HBR
Box + 1 Pan, 10.1 m
Radar Cross Section
13.562 m², Large (>1 m²)

Expand to show TLE details & history
Last TLE update: 3 days ago

TLE from 3 days ago
0 STARLINK-1048
1 44753U 19074AS  26170.89439504  .00075842  00000-0  65505-3 0  9992
2 44753  53.0440  29.4663 0005604  87.6789 272.4868 15.68555402364978
Epoch: 2026-06-19T21:27Z
TLE epoch observation values (Epoch: 2026-06-19T21:27:55.731Z)
Latitude
-0.00006°
Longitude
159.36722°
Altitude
363.773 km
Speed
7.692 km/s
True Right ascension
01h 57m 51s
True Declination
0° 00' 00"
Sunlit
Object was in daylight at epoch
Visualization orbit readout
Latitude
Unknown
Longitude
Unknown
Altitude
Unknown
Speed
Unknown
Apparent Right ascension
Unknown
Apparent Declination
Unknown
Sunlit
N/A
Visualization observer readout
Local Sidereal Time
21:37:22
Azimuth
Unknown
Elevation
Unknown
Doppler factor
Unknown
Orbital elements
Apogee altitude
367.09 km
Perigee altitude
359.535 km
Semi-major axis
6,741.449 km
Eccentricity
0.00056
Inclination
53.044°
RAAN
29.4663°
Arg. of periapsis
87.6789°
True anomaly
272.42264°
Mean anomaly
272.4868°
Eccentric anomaly
272.45472°
Mean motion
3.92115 °/min
Orbital period
91.81 mins
BSTAR
0.00065505
Loading maneuver chart data...
Computing Atmospheric mass density...

Documentation

Showing up to 5 results
|